Regional Weather Roundup
Issued by NWS

Home | Current Version | Previous Version | Text Only | Print | Product List | Glossary On
Versions: 1 2 3 4 5 6 7 8 9 10 11 12 13 14 15 16 17 18 19 20 21 22 23 24 25 26 27 28 29 30 31 32 33 34 35 36 37 38 39 40 41 42 43 44 45 46 47 48 49 50
598
ASUS44 KJAN 251610
RWRMS

MISSISSIPPI HOURLY WEATHER ROUNDUP
NATIONAL WEATHER SERVICE JACKSON MS
1100 AM CDT FRI JUL 25 2014

NOTE: "FAIR: INDICATES FEW OR NO CLOUDS BELOW 12,000 FEET WITH NO
SIGNIFICANT WEATHER AND/OR OBSTRUCTIONS TO VISIBILITY.

MSZ001>002-007>008-010>013-018>021-025>028-034>036-251700-
NORTHWEST MISSISSIPPI

CITY           SKY/WX    TMP DP  RH WIND       PRES   REMARKS
CLARKSDALE     FAIR      79  64  61 CALM      30.08S
CLEVELAND      FAIR      78  66  66 NW3       30.07S
GREENWOOD      SUNNY     80  65  59 CALM      30.06F
GREENVILLE     SUNNY     81  65  58 CALM      30.07S
GRENADA        FAIR      81  63  54 NW7       30.07S
OLIVE BRANCH   PTSUNNY   79  64  61 CALM      30.06F
OXFORD         FAIR      77  61  57 CALM      30.08F
TUNICA         SUNNY     79  63  57 CALM      30.07F
$$

MSZ003>006-009-014>017-022>024-029>033-037>039-251700-
NORTHEAST MISSISSIPPI

CITY           SKY/WX    TMP DP  RH WIND       PRES   REMARKS
BELMONT        FAIR      78  65  65 SW3       30.06S
COLUMBUS AFB   MOSUNNY   81  65  58 VRB5      30.05F
CORINTH        FAIR      75  66  73 CALM      30.05F
GOLDN TRIANGLE PTSUNNY   81  66  61 CALM      30.06F
STARKVILLE     FAIR      79  66  65 NW5       30.05F
TUPELO         MOSUNNY   81  64  56 VRB7      30.06R
$$

MSZ040-058-251700-
CENTRAL MISSISSIPPI

CITY           SKY/WX    TMP DP  RH WIND       PRES   REMARKS
JACKSON INTL   SUNNY     84  71  65 SE3       30.06R
JACKSON HAWKNS SUNNY     85  70  60 VRB6      30.06S
MERIDIAN KEY   SUNNY     85  69  58 CALM      30.05S
MERIDIAN NAS   SUNNY     84  69  60 W5        30.04F
RAYMOND        FAIR      84  81  89 CALM      30.06S HX  98
VICKSBURG      SUNNY     86  73  65 VRB5      30.06R HX  93
$$

MSZ059>079-251700-
SOUTH MISSISSIPPI

CITY           SKY/WX    TMP DP  RH WIND       PRES   REMARKS
BROOKHAVEN     FAIR      84  75  74 SW7       30.08R HX  92
COLUMBIA       FAIR      86  75  70 W5        30.04S HX  95
HATTIESBURG    SUNNY     87  73  62 VRB6      30.05S HX  94
MCCOMB         MOSUNNY   85  74  69 W9        30.05F HX  92
NATCHEZ        MOSUNNY   84  75  74 W6        30.06S HX  92
PINE BELT      MOSUNNY   84  73  70 CALM      30.07S HX  91
$$

MSZ080>082-251700-
COASTAL MISSISSIPPI

CITY           SKY/WX    TMP DP  RH WIND       PRES   REMARKS
BAY ST LOUIS   MOSUNNY  N/A N/A N/A W5        30.04F
BILOXI         SUNNY     89  75  63 VRB6      30.03F HX  99
PASCAGOULA     MOSUNNY   88  75  65 W6        30.03F HX  97
GULFPORT       SUNNY     90  74  59 W9        30.03S HX  99
$$



USA.gov is the U.S. government's official web portal to all federal, state and local government web resources and services.